| time (UTC) | temp F | wind direction | speed knots | gust knots | rain 1hr in | rain 24hr in | rain mn in | humidity % | barometer mb |
| 20260509224559 | 76 | 6 | 13.0 | 21.7 | 0.00 | 0.00 | 0.00 | 28 | 1008.3 |
| 20260509223054 | 77 | 352 | 13.9 | 20.9 | 0.00 | 0.00 | 0.00 | 27 | 1008.0 |
| 20260509221552 | 78 | 8 | 17.4 | 24.3 | 0.00 | 0.00 | 0.00 | 27 | 1007.9 |
| 20260509220055 | 79 | 335 | 13.9 | 20.0 | 0.00 | 0.00 | 0.00 | 28 | 1007.7 |
| 20260509214558 | 80 | 20 | 13.9 | 20.9 | 0.00 | 0.00 | 0.00 | 28 | 1007.6 |
| 20260509213113 | 79 | 317 | 7.0 | 14.8 | 0.00 | 0.00 | 0.00 | 28 | 1007.6 |
| 20260509211553 | 79 | 327 | 7.8 | 14.8 | 0.00 | 0.00 | 0.00 | 30 | 1007.6 |
| 20260509204548 | 79 | 322 | 11.3 | 16.5 | 0.00 | 0.00 | 0.00 | 29 | 1007.7 |
| 20260509203048 | 79 | 329 | 9.6 | 15.6 | 0.00 | 0.00 | 0.00 | 29 | 1007.7 |
| 20260509201547 | 78 | 326 | 12.2 | 19.1 | 0.00 | 0.00 | 0.00 | 30 | 1007.6 |
| 20260509200047 | 79 | 323 | 13.9 | 20.0 | 0.00 | 0.00 | 0.00 | 30 | 1007.3 |
| 20260509194547 | 78 | 14 | 13.0 | 19.1 | 0.00 | 0.00 | 0.00 | 28 | 1007.5 |
| 20260509193045 | 79 | 8 | 13.9 | 19.1 | 0.00 | 0.00 | 0.00 | 29 | 1007.3 |
| 20260509191544 | 78 | 41 | 10.4 | 14.8 | 0.00 | 0.00 | 0.00 | 30 | 1007.3 |
| 20260509190043 | 77 | 43 | 7.8 | 16.5 | 0.00 | 0.00 | 0.00 | 32 | 1007.3 |
| 20260509184551 | 77 | 349 | 7.8 | 16.5 | 0.00 | 0.00 | 0.00 | 33 | 1007.2 |
| 20260509183038 | 76 | 8 | 10.4 | 13.9 | 0.00 | 0.00 | 0.00 | 33 | 1007.3 |
| 20260509181549 | 75 | 338 | 8.7 | 14.8 | 0.00 | 0.00 | 0.00 | 34 | 1007.5 |
| 20260509180032 | 73 | 6 | 7.8 | 13.0 | 0.00 | 0.00 | 0.00 | 35 | 1007.6 |
| 20260509174528 | 71 | 6 | 7.0 | 12.2 | 0.00 | 0.00 | 0.00 | 37 | 1007.8 |
| 20260509173026 | 70 | 21 | 7.0 | 11.3 | 0.00 | 0.00 | 0.00 | 38 | 1007.8 |
| 20260509171524 | 70 | 357 | 7.0 | 10.4 | 0.00 | 0.00 | 0.00 | 39 | 1008.1 |
| 20260509170022 | 68 | 20 | 6.1 | 12.2 | 0.00 | 0.00 | 0.00 | 42 | 1008.2 |
| 20260509164531 | 67 | 348 | 5.2 | 8.7 | 0.00 | 0.00 | 0.00 | 45 | 1008.2 |
| 20260509163017 | 66 | 8 | 3.5 | 7.8 | 0.00 | 0.00 | 0.00 | 45 | 1008.2 |
| 20260509161512 | 65 | 356 | 3.5 | 7.0 | 0.00 | 0.00 | 0.00 | 47 | 1008.2 |
| 20260509160010 | 63 | 349 | 2.6 | 6.1 | 0.00 | 0.00 | 0.00 | 53 | 1008.4 |
| 20260509154508 | 62 | 338 | 5.2 | 7.0 | 0.00 | 0.00 | 0.00 | 55 | 1008.6 |
| 20260509153007 | 62 | 343 | 0.9 | 1.7 | 0.00 | 0.00 | 0.00 | 53 | 1008.6 |
| 20260509151507 | 61 | 307 | 0.0 | 1.7 | 0.00 | 0.00 | 0.00 | 58 | 1008.6 |
| 20260509150006 | 62 | 156 | 0.0 | 0.9 | 0.00 | 0.00 | 0.00 | 50 | 1008.6 |
| 20260509144505 | 62 | 174 | 0.9 | 4.3 | 0.00 | 0.00 | 0.00 | 51 | 1008.7 |
| 20260509143005 | 62 | 195 | 1.7 | 4.3 | 0.00 | 0.00 | 0.00 | 51 | 1008.8 |
| 20260509141502 | 61 | 150 | 2.6 | 4.3 | 0.00 | 0.00 | 0.00 | 56 | 1009.0 |
| 20260509140105 | 60 | 176 | 2.6 | 5.2 | 0.00 | 0.00 | 0.00 | 58 | 1009.0 |
| 20260509134556 | 59 | 153 | 3.5 | 6.1 | 0.00 | 0.00 | 0.00 | 59 | 1009.0 |
| 20260509133052 | 57 | 169 | 3.5 | 8.7 | 0.00 | 0.00 | 0.00 | 62 | 1008.9 |
| 20260509131550 | 57 | 209 | 4.3 | 7.8 | 0.00 | 0.00 | 0.00 | 60 | 1008.9 |
| 20260509130047 | 55 | 218 | 3.5 | 7.8 | 0.00 | 0.00 | 0.00 | 63 | 1008.8 |
| 20260509124544 | 54 | 217 | 2.6 | 8.7 | 0.00 | 0.00 | 0.00 | 63 | 1008.8 |
| 20260509123040 | 53 | 259 | 1.7 | 6.1 | 0.00 | 0.00 | 0.00 | 69 | 1008.7 |
| 20260509121540 | 52 | 176 | 3.5 | 4.3 | 0.00 | 0.00 | 0.00 | 71 | 1008.4 |
| 20260509120038 | 50 | 146 | 0.0 | 2.6 | 0.00 | 0.00 | 0.00 | 74 | 1008.4 |
| 20260509114535 | 50 | 193 | 1.7 | 4.3 | 0.00 | 0.00 | 0.00 | 73 | 1008.4 |
| 20260509113034 | 50 | 179 | 5.2 | 7.8 | 0.00 | 0.00 | 0.00 | 72 | 1007.9 |
| 20260509111533 | 49 | 172 | 2.6 | 4.3 | 0.00 | 0.00 | 0.00 | 73 | 1008.3 |
| 20260509110039 | 50 | 189 | 1.7 | 7.0 | 0.00 | 0.00 | 0.00 | 69 | 1008.2 |
| 20260509104534 | 48 | 242 | 1.7 | 4.3 | 0.00 | 0.00 | 0.00 | 70 | 1008.2 |
| 20260509103033 | 46 | 158 | 0.9 | 2.6 | 0.00 | 0.00 | 0.00 | 74 | 1008.0 |
| 20260509101539 | 45 | 191 | 0.9 | 1.7 | 0.00 | 0.00 | 0.00 | 75 | 1008.2 |
| 20260509100026 | 45 | 161 | 0.9 | 2.6 | 0.00 | 0.00 | 0.00 | 71 | 1008.1 |
| 20260509094528 | 49 | 198 | 0.9 | 3.5 | 0.00 | 0.00 | 0.00 | 63 | 1008.1 |
| 20260509093025 | 49 | 216 | 0.9 | 2.6 | 0.00 | 0.00 | 0.00 | 61 | 1008.2 |
| 20260509091529 | 49 | 227 | 2.6 | 5.2 | 0.00 | 0.00 | 0.00 | 62 | 1008.3 |
| 20260509090023 | 49 | 209 | 1.7 | 3.5 | 0.00 | 0.00 | 0.00 | 63 | 1008.2 |
| 20260509084528 | 47 | 259 | 0.9 | 2.6 | 0.00 | 0.00 | 0.00 | 65 | 1008.4 |
| 20260509083024 | 49 | 219 | 0.9 | 3.5 | 0.00 | 0.00 | 0.00 | 63 | 1008.1 |
| 20260509081520 | 48 | 211 | 0.9 | 1.7 | 0.00 | 0.00 | 0.00 | 63 | 1008.1 |
| 20260509080017 | 47 | 221 | 0.9 | 2.6 | 0.00 | 0.00 | 0.00 | 65 | 1008.3 |
| 20260509074518 | 45 | 200 | 0.9 | 2.6 | 0.00 | 0.00 | 0.00 | 66 | 1008.3 |
| 20260509073025 | 45 | 202 | 0.0 | 0.0 | 0.00 | 0.00 | 0.00 | 67 | 1008.5 |
| 20260509071512 | 47 | 222 | 0.0 | 2.6 | 0.00 | 0.00 | 0.00 | 65 | 1008.6 |
| 20260509070010 | 46 | 117 | 0.0 | 1.7 | 0.00 | 0.00 | 0.00 | 65 | 1008.8 |
| 20260509064508 | 48 | 186 | 3.5 | 5.2 | 0.00 | 0.00 | 0.00 | 61 | 1008.7 |
| 20260509063013 | 47 | 199 | 2.6 | 4.3 | 0.00 | 0.00 | 0.00 | 62 | 1008.6 |
| 20260509061504 | 49 | 198 | 2.6 | 4.3 | 0.00 | 0.00 | 0.00 | 58 | 1008.8 |
| 20260509060002 | 51 | 215 | 3.5 | 5.2 | 0.00 | 0.00 | 0.00 | 54 | 1008.7 |
| 20260509054614 | 50 | 192 | 2.6 | 4.3 | 0.00 | 0.00 | 0.00 | 56 | 1008.7 |
| 20260509053104 | 50 | 200 | 3.5 | 5.2 | 0.00 | 0.00 | 0.00 | 56 | 1008.8 |
| 20260509051557 | 51 | 191 | 2.6 | 5.2 | 0.00 | 0.00 | 0.00 | 56 | 1009.0 |
| 20260509050057 | 50 | 193 | 2.6 | 4.3 | 0.00 | 0.00 | 0.00 | 56 | 1009.0 |
| 20260509044554 | 52 | 200 | 3.5 | 5.2 | 0.00 | 0.00 | 0.00 | 51 | 1009.1 |
| 20260509043054 | 51 | 198 | 2.6 | 4.3 | 0.00 | 0.00 | 0.00 | 51 | 1009.1 |
| 20260509041555 | 52 | 177 | 3.5 | 4.3 | 0.00 | 0.00 | 0.00 | 48 | 1009.1 |
| 20260509040121 | 52 | 195 | 2.6 | 4.3 | 0.00 | 0.00 | 0.00 | 48 | 1009.1 |
| 20260509034557 | 53 | 195 | 3.5 | 4.3 | 0.00 | 0.00 | 0.00 | 46 | 1008.9 |
| 20260509033053 | 55 | 191 | 2.6 | 3.5 | 0.00 | 0.00 | 0.00 | 43 | 1008.9 |
| 20260509031553 | 57 | 177 | 2.6 | 3.5 | 0.00 | 0.00 | 0.00 | 39 | 1008.7 |
| 20260509030051 | 68 | 198 | 0.0 | 0.0 | 0.00 | 0.00 | 0.00 | 27 | 1008.7 |
| 20260509024550 | 67 | 243 | 0.0 | 1.7 | 0.00 | 0.00 | 0.00 | 26 | 1008.5 |
| 20260509023049 | 67 | 241 | 0.0 | 0.9 | 0.00 | 0.00 | 0.00 | 27 | 1008.4 |
| 20260509021549 | 67 | 252 | 0.0 | 1.7 | 0.00 | 0.00 | 0.00 | 27 | 1008.3 |
| 20260509020048 | 68 | 245 | 0.0 | 2.6 | 0.00 | 0.00 | 0.00 | 27 | 1008.1 |
| 20260509014547 | 68 | 264 | 2.6 | 4.3 | 0.00 | 0.00 | 0.00 | 27 | 1007.9 |
| 20260509013051 | 68 | 266 | 3.5 | 4.3 | 0.00 | 0.00 | 0.00 | 28 | 1007.8 |
| 20260509011556 | 67 | 280 | 1.7 | 3.5 | 0.00 | 0.00 | 0.00 | 30 | 1007.6 |
| 20260509010049 | 70 | 291 | 0.9 | 5.2 | 0.00 | 0.00 | 0.00 | 32 | 1007.7 |
| 20260509004604 | 71 | 293 | 5.2 | 11.3 | 0.00 | 0.00 | 0.00 | 26 | 1007.6 |
| 20260509003046 | 72 | 286 | 4.3 | 10.4 | 0.00 | 0.00 | 0.00 | 27 | 1007.6 |
| 20260509001544 | 73 | 283 | 6.1 | 10.4 | 0.00 | 0.00 | 0.00 | 26 | 1007.4 |
| 20260509000046 | 73 | 301 | 8.7 | 13.0 | 0.00 | 0.00 | 0.00 | 25 | 1007.5 |
| 20260508234543 | 73 | 238 | 3.5 | 8.7 | 0.00 | 0.00 | 0.00 | 26 | 1007.5 |
| 20260508233044 | 73 | 259 | 8.7 | 17.4 | 0.00 | 0.00 | 0.00 | 25 | 1007.4 |
| 20260508231542 | 75 | 274 | 7.0 | 12.2 | 0.00 | 0.00 | 0.00 | 26 | 1007.5 |
| 20260508230042 | 73 | 283 | 7.8 | 13.9 | 0.00 | 0.00 | 0.00 | 26 | 1007.7 |